Powrót do katalogu

STARLINK-36814

AktywnyŁącznośćVLEO
NORAD 67904·PAYLOAD·🇺🇸 United States

Wystrzelony Feb 22, 2026 z Vandenberg Space Force Base

Loading…

Następne Przeloty (najbliższe 24 godziny)

TLE

ŚwieżeSource: CelesTrak SupGP

Epoka: Sep 14, 2026, 21:00 UTC

1 67904C 26036A   26257.87548611  .00028387  00000+0  10285-2 0  2577
2 67904  42.9991 257.2755 0001480 265.5097 356.1865 15.27553519    10

Śledź STARLINK-36814 w czasie rzeczywistym z AllMySat

Download on the App Store